This is the latest recevied weather packets stored in our database for station/object R1ZCU-14. If no packets are shown the sender has not sent any weather packets the latest 10 day(s).
| Time | Temp. | Humidity | Pressure | Rain* | Wind** | Luminosity | Snow |
|---|---|---|---|---|---|---|---|
| 1778180680 | 3.33° C | 83% | 1011.5 hPa | - | - | - | - |
| 1778180079 | 3.89° C | 77% | 1011.5 hPa | - | - | - | - |
| 1778179479 | 3.89° C | 73% | 1011.3 hPa | - | - | - | - |
| 1778178878 | 4.44° C | 72% | 1011.1 hPa | - | - | - | - |
| 1778178278 | 4.44° C | 73% | 1011 hPa | - | - | - | - |
| 1778177677 | 4.44° C | 70% | 1011 hPa | - | - | - | - |
| 1778177077 | 5° C | 67% | 1010.8 hPa | - | - | - | - |
| 1778176476 | 5° C | 60% | 1010.8 hPa | - | - | - | - |
| 1778175876 | 5° C | 60% | 1010.7 hPa | - | - | - | - |
| 1778175275 | 5° C | 60% | 1010.7 hPa | - | - | - | - |
| 1778174675 | 5.56° C | 60% | 1010.6 hPa | - | - | - | - |
| 1778174074 | 5° C | 61% | 1010.5 hPa | - | - | - | - |
| 1778173474 | 5° C | 63% | 1010.5 hPa | - | - | - | - |
| 1778172873 | 5° C | 62% | 1010.4 hPa | - | - | - | - |
| 1778172273 | 5° C | 58% | 1010.4 hPa | - | - | - | - |
| 1778171672 | 5.56° C | 58% | 1010.3 hPa | - | - | - | - |
| 1778171072 | 5° C | 60% | 1010.3 hPa | - | - | - | - |
| 1778170471 | 5° C | 58% | 1010.3 hPa | - | - | - | - |
| 1778169871 | 5.56° C | 58% | 1010.2 hPa | - | - | - | - |
| 1778169271 | 5.56° C | 60% | 1010.2 hPa | - | - | - | - |
| 1778168670 | 5° C | 61% | 1010.2 hPa | - | - | - | - |
| 1778168069 | 5° C | 61% | 1010.3 hPa | - | - | - | - |
| 1778167469 | 5° C | 60% | 1010.2 hPa | - | - | - | - |
| 1778166869 | 5° C | 59% | 1010.2 hPa | - | - | - | - |
| 1778166268 | 5.56° C | 55% | 1009.9 hPa | - | - | - | - |
* Rain since midnight (hover to see other rain measurements)
** Current wind speed in m/s (hover to see current wind gust speed)